SAUDICOMSAT 6 (31121 NORAD) Tracking and Keplerian Element Data

This shows tracking and keplerian element data for the satellite.

Feedback or suggestion? Click here.




ElementValue
Catalog31121
NameSAUDICOMSAT 6
Epoch Orbit94735
Epoch Day34.81162596
Epoch Year2025
RAAN350.5546
Inclination98.3418
Eccentricity0.0074513
Argument of Perigee78.9362
Mean Anonmoly282.0207
Mean Motion14.61467807
Decay Rate1.786E-05
L11 31121U 07012E 25034.81162596 .00001786 00000+0 35644-3 0 9996
L22 31121 98.3418 350.5546 0074513 78.9362 282.0207 14.61467807947359



Live tracking and technical data element details for SAUDICOMSAT 6 (NORAD 31121). SAUDICOMSAT 6 can be tracked NOW for your location showing map with azimuth and elevation plus other details from your city location.







IsCatalogInMostPopularTable: catalog: 31121, numindb: 291
Update: records affected: 1



GetName: 31121 SAUDICOMSAT 6

Hit Count: updated at: Thu, 22 May 2025 04:18:29 GMT